When you browse on this site, cookies collect data to enhance your experience and personalize the content and advertising you see.
Visit our Privacy Policy to learn more. By continuing to use the site, you agree to this use of cookies and data.
  • In Lithuania
  • List of Countries
  • For 7 days
  • Water Temperature
  • Satellite Maps
  • Weather Map
  • Weather Widgets
  • user-avatar
    Login

    Hourly Weather Guanare

    Today, 20 April, Saturday

    Time Temperature Precipitation Wind Pressure Humidity
    00:00 +27°C° 0.6 mm 1 mps 742 mmHg 68%
    01:00 +27°C° 0 mm 1 mps 742 mmHg 71%
    02:00 +27°C° 0.4 mm 1 mps 742 mmHg 72%
    03:00 +27°C° 0.4 mm 1 mps 742 mmHg 73%
    04:00 +26°C° 0.4 mm 1 mps 742 mmHg 74%
    05:00 +27°C° 0.7 mm 1 mps 742 mmHg 75%
    06:00 +27°C° 0.7 mm 1 mps 743 mmHg 76%
    07:00 +27°C° 0 mm 1 mps 743 mmHg 75%
    08:00 +28°C° 0.3 mm 1 mps 744 mmHg 71%
    09:00 +29°C° 0.3 mm 1 mps 744 mmHg 68%
    10:00 +30°C° 0.3 mm 1 mps 744 mmHg 64%
    11:00 +32°C° 0.9 mm 1 mps 743 mmHg 59%
    12:00 +34°C° 0.9 mm 1 mps 742 mmHg 53%
    13:00 +35°C° 0.9 mm 1 mps 742 mmHg 48%
    14:00 +35°C° 0.2 mm 1 mps 741 mmHg 49%
    15:00 +34°C° 0.2 mm 1 mps 741 mmHg 50%
    16:00 +34°C° 0.2 mm 1 mps 741 mmHg 51%
    17:00 +32°C° 0.1 mm 1 mps 741 mmHg 56%
    18:00 +31°C° 0.1 mm 1 mps 741 mmHg 60%
    19:00 +29°C° 0.1 mm 1 mps 741 mmHg 65%
    20:00 +29°C° 0.1 mm 1 mps 741 mmHg 65%
    21:00 +29°C° 0.1 mm 1 mps 742 mmHg 65%
    22:00 +28°C° 0.1 mm 1 mps 742 mmHg 65%
    23:00 +28°C° 0.1 mm 1 mps 742 mmHg 65%

    Tomorrow, 21 April, Sunday

    Time Temperature Precipitation Wind Pressure Humidity
    00:00 +28°C° 0.1 mm 1 mps 742 mmHg 65%
    01:00 +27°C° 0.1 mm 1 mps 742 mmHg 66%
    02:00 +27°C° 0.1 mm 1 mps 742 mmHg 66%
    03:00 +27°C° 0.1 mm 1 mps 742 mmHg 66%
    04:00 +27°C° 0.1 mm 1 mps 741 mmHg 66%
    05:00 +27°C° 0.5 mm 1 mps 742 mmHg 67%
    06:00 +26°C° 0.5 mm 0 mps 742 mmHg 68%
    07:00 +26°C° 0.5 mm 0 mps 743 mmHg 69%
    08:00 +28°C° 0.1 mm 0 mps 743 mmHg 65%
    09:00 +29°C° 0.1 mm 0 mps 743 mmHg 60%
    10:00 +31°C° 0.1 mm 0 mps 744 mmHg 56%
    11:00 +31°C° 0.3 mm 0 mps 743 mmHg 53%
    12:00 +32°C° 0.3 mm 0 mps 742 mmHg 51%
    13:00 +33°C° 0.3 mm 0 mps 741 mmHg 49%
    14:00 +33°C° 0 mm 0 mps 741 mmHg 49%
    15:00 +32°C° 0 mm 0 mps 740 mmHg 49%
    16:00 +32°C° 0 mm 0 mps 739 mmHg 49%
    17:00 +30°C° 0 mm 0 mps 740 mmHg 54%
    18:00 +31°C° 0 mm 1 mps 740 mmHg 58%
    19:00 +30°C° 0 mm 1 mps 740 mmHg 62%
    20:00 +29°C° 0.2 mm 1 mps 741 mmHg 64%
    21:00 +29°C° 0.2 mm 1 mps 741 mmHg 66%
    22:00 +28°C° 0.2 mm 1 mps 742 mmHg 68%
    23:00 +28°C° 0.1 mm 1 mps 741 mmHg 69%

    Day after tomorrow, 22 April, Monday

    Time Temperature Precipitation Wind Pressure Humidity
    00:00 +28°C° 0.1 mm 1 mps 741 mmHg 69%
    01:00 +28°C° 0.1 mm 1 mps 741 mmHg 70%
    02:00 +27°C° 0.2 mm 1 mps 741 mmHg 73%
    03:00 +27°C° 0.2 mm 1 mps 741 mmHg 76%
    04:00 +24°C° 0.2 mm 0 mps 740 mmHg 79%
    05:00 +24°C° 0.3 mm 0 mps 741 mmHg 79%
    06:00 +25°C° 0.3 mm 0 mps 741 mmHg 80%
    07:00 +25°C° 0.3 mm 0 mps 742 mmHg 80%
    08:00 +26°C° 0.1 mm 0 mps 742 mmHg 76%
    09:00 +27°C° 0.1 mm 0 mps 742 mmHg 71%
    10:00 +28°C° 0.1 mm 0 mps 743 mmHg 67%
    11:00 +30°C° 0 mm 0 mps 742 mmHg 59%
    12:00 +34°C° 0 mm 1 mps 741 mmHg 52%
    13:00 +36°C° 0 mm 1 mps 740 mmHg 44%
    14:00 +35°C° 0 mm 1 mps 740 mmHg 45%
    15:00 +35°C° 0 mm 1 mps 739 mmHg 45%
    16:00 +34°C° 0 mm 1 mps 739 mmHg 46%
    17:00 +33°C° 0.2 mm 1 mps 739 mmHg 51%
    18:00 +31°C° 0.2 mm 1 mps 739 mmHg 57%
    19:00 +29°C° 0.2 mm 1 mps 740 mmHg 62%
    20:00 +29°C° 0.3 mm 1 mps 740 mmHg 64%
    21:00 +28°C° 0.3 mm 1 mps 741 mmHg 66%
    22:00 +28°C° 0.3 mm 1 mps 741 mmHg 68%
    23:00 +28°C° 0.1 mm 1 mps 741 mmHg 69%

    23 April, Tuesday

    Time Temperature Precipitation Wind Pressure Humidity
    00:00 +26°C° 0.1 mm 0 mps 740 mmHg 69%
    01:00 +25°C° 0.1 mm 0 mps 740 mmHg 70%
    02:00 +25°C° 0.1 mm 0 mps 740 mmHg 73%
    03:00 +24°C° 0.1 mm 0 mps 740 mmHg 76%
    04:00 +24°C° 0.1 mm 0 mps 740 mmHg 80%
    05:00 +25°C° 0.2 mm 0 mps 741 mmHg 78%
    06:00 +25°C° 0.2 mm 0 mps 741 mmHg 77%
    07:00 +26°C° 0.2 mm 0 mps 742 mmHg 75%
    08:00 +29°C° 0.6 mm 1 mps 742 mmHg 68%
    09:00 +31°C° 0.6 mm 1 mps 742 mmHg 61%
    10:00 +33°C° 0.6 mm 1 mps 743 mmHg 54%
    11:00 +34°C° 0.8 mm 1 mps 742 mmHg 52%
    12:00 +35°C° 0.8 mm 2 mps 741 mmHg 50%
    13:00 +36°C° 0.8 mm 2 mps 740 mmHg 49%
    14:00 +35°C° 0.2 mm 2 mps 740 mmHg 51%
    15:00 +35°C° 0.2 mm 2 mps 739 mmHg 53%
    16:00 +34°C° 0.2 mm 2 mps 739 mmHg 55%
    17:00 +31°C° 2 mm 1 mps 739 mmHg 64%
    18:00 +29°C° 2 mm 1 mps 740 mmHg 74%
    19:00 +28°C° 2 mm 1 mps 740 mmHg 83%
    20:00 +27°C° 2 mm 1 mps 741 mmHg 84%
    21:00 +27°C° 2 mm 1 mps 741 mmHg 85%
    22:00 +25°C° 2 mm 0 mps 742 mmHg 86%
    23:00 +27°C° 0.7 mm 1 mps 741 mmHg 86%

    24 April, Wednesday

    Time Temperature Precipitation Wind Pressure Humidity
    00:00 +26°C° 0.7 mm 1 mps 741 mmHg 86%
    01:00 +26°C° 0.7 mm 1 mps 740 mmHg 86%
    02:00 +26°C° 0.3 mm 1 mps 740 mmHg 86%
    03:00 +24°C° 0.3 mm 0 mps 740 mmHg 86%
    04:00 +24°C° 0.3 mm 0 mps 740 mmHg 86%
    05:00 +24°C° 0.6 mm 0 mps 741 mmHg 85%
    06:00 +24°C° 0.6 mm 0 mps 742 mmHg 84%
    07:00 +25°C° 0.6 mm 0 mps 742 mmHg 84%
    08:00 +26°C° 0.3 mm 0 mps 742 mmHg 79%
    09:00 +27°C° 0.3 mm 0 mps 743 mmHg 74%
    10:00 +28°C° 0.3 mm 0 mps 743 mmHg 70%
    11:00 +31°C° 1.3 mm 1 mps 742 mmHg 65%
    12:00 +33°C° 1.3 mm 1 mps 741 mmHg 61%
    13:00 +34°C° 1.3 mm 1 mps 740 mmHg 57%
    14:00 +33°C° 1.7 mm 1 mps 740 mmHg 60%
    15:00 +32°C° 1.7 mm 1 mps 740 mmHg 64%
    16:00 +31°C° 1.7 mm 1 mps 740 mmHg 67%
    17:00 +30°C° 0.6 mm 1 mps 740 mmHg 72%
    18:00 +29°C° 0.6 mm 1 mps 741 mmHg 78%
    19:00 +26°C° 0.6 mm 0 mps 741 mmHg 83%
    20:00 +27°C° 1.3 mm 1 mps 742 mmHg 83%
    21:00 +27°C° 1.3 mm 1 mps 742 mmHg 84%
    22:00 +27°C° 1.3 mm 1 mps 742 mmHg 84%
    23:00 +27°C° 1.5 mm 1 mps 742 mmHg 85%

    25 April, Thursday

    Time Temperature Precipitation Wind Pressure Humidity
    00:00 +26°C° 1.5 mm 1 mps 741 mmHg 86%
    01:00 +26°C° 1.5 mm 1 mps 741 mmHg 87%
    02:00 +26°C° 2.3 mm 1 mps 741 mmHg 88%
    03:00 +24°C° 2.3 mm 0 mps 741 mmHg 88%
    04:00 +24°C° 2.3 mm 0 mps 741 mmHg 89%
    05:00 +24°C° 2 mm 0 mps 742 mmHg 90%
    06:00 +26°C° 2 mm 1 mps 742 mmHg 91%
    07:00 +26°C° 2 mm 1 mps 743 mmHg 91%
    08:00 +26°C° 1.2 mm 1 mps 743 mmHg 90%
    09:00 +27°C° 1.2 mm 1 mps 743 mmHg 88%
    10:00 +27°C° 1.2 mm 1 mps 743 mmHg 86%
    11:00 +26°C° 0.9 mm 0 mps 743 mmHg 82%
    12:00 +27°C° 0.9 mm 0 mps 742 mmHg 77%
    13:00 +28°C° 0.9 mm 0 mps 742 mmHg 72%
    14:00 +30°C° 0.2 mm 1 mps 741 mmHg 71%
    15:00 +30°C° 0.2 mm 1 mps 741 mmHg 70%
    16:00 +30°C° 0.2 mm 1 mps 740 mmHg 69%
    17:00 +29°C° 0 mm 1 mps 741 mmHg 73%
    18:00 +28°C° 0 mm 1 mps 741 mmHg 77%
    19:00 +27°C° 0 mm 1 mps 742 mmHg 80%
    20:00 +26°C° 0 mm 1 mps 742 mmHg 79%
    21:00 +26°C° 0 mm 1 mps 743 mmHg 78%
    22:00 +26°C° 0 mm 1 mps 743 mmHg 77%
    23:00 +26°C° 0 mm 1 mps 742 mmHg 76%
    Show more